Home   Weather   Alofi   Past weeks
Flag for Niue

Past Weather in Alofi, Niue — Yesterday and Last 2 Weeks

Now
82 °F

Warm.


Feels Like: 88 °F
Forecast: 79 / 72 °F
Wind: 12 mph from East

Location: Alofi / Niue

Current Time: Oct 18, 2019 at 3:49:42 pm

Latest Report: Oct 18, 2019 at 3:00 pm


Visibility: N/A

Pressure: 29.95 "Hg

Humidity: 74%

Dew Point: 73 °F

Location of AlofiLocation

Past Weather in Alofi — Graph

°F

Alofi Temperature Yesterday

Maximum temperature yesterday: 81 °F (at 2:00 pm)
Minimum temperature yesterday: 72 °F (at 5:00 am)
Average temperature yesterday: 75 °F

High & Low Weather Summary for the Past Weeks

 TemperatureHumidityPressure
High84 °F (Oct 15, 12:00 pm)100% (Oct 4, 1:00 am)30.09 "Hg (Oct 4, 1:00 am)
Low66 °F (Oct 6, 4:00 am)51% (Oct 12, 12:00 pm)29.86 "Hg (Oct 13, 3:00 pm)
Average75 °F78%29.98 "Hg
* Reported Oct 3 2:00 pm — Oct 18 2:00 pm, Alofi. Weather by CustomWeather, © 2019

Note: Actual official high and low records may vary slightly from our data, if they occured in-between our weather recording intervals... More about our weather records

Advertising

Alofi Weather History for the Previous 24 Hours

Scroll right to see more
 ConditionsComfort  
Time TempWeatherWind HumidityBarometerVisibility
2:00 pm
Fri, Oct 18
82 °FWarm.9 mph74%29.95 "HgN/A
1:00 pm82 °FBroken clouds.8 mph74%29.98 "HgN/A
12:00 pm82 °FBroken clouds.7 mph74%N/AN/A
11:00 am82 °FBroken clouds.8 mph74%N/AN/A
10:00 am79 °FBroken clouds.7 mph84%N/AN/A
9:00 am79 °FBroken clouds.7 mph84%N/AN/A
8:00 am75 °FBroken clouds.3 mph94%N/AN/A
7:00 am73 °FBroken clouds.3 mph94%30.01 "HgN/A
6:00 am72 °FDrizzle. Broken clouds.2 mph100%29.98 "HgN/A
5:00 am72 °FRain showers. Overcast.7 mph100%29.95 "HgN/A
4:00 am72 °FSprinkles. Overcast.5 mph100%N/AN/A
3:00 am73 °FPartly cloudy.6 mph94%29.95 "HgN/A
2:00 am73 °FPartly cloudy.5 mph89%29.98 "HgN/A
1:00 am73 °FPartly cloudy.6 mph89%29.98 "HgN/A
12:00 am75 °FMild.6 mph89%29.98 "HgN/A
11:00 pm
Thu, Oct 17
75 °FMild.7 mph89%30.01 "HgN/A
10:00 pm75 °FMild.7 mph89%30.01 "HgN/A
9:00 pm75 °FMild.8 mph89%29.98 "HgN/A
8:00 pm75 °FMild.9 mph89%29.98 "HgN/A
7:00 pm75 °FMild.9 mph89%29.95 "HgN/A
6:00 pm75 °FMild.9 mph89%29.92 "HgN/A
5:00 pm77 °FWarm.10 mph83%29.92 "HgN/A
4:00 pm79 °FWarm.6 mph79%29.92 "HgN/A
3:00 pm79 °FWarm.5 mph74%29.92 "HgN/A
Weather by CustomWeather, © 2019

See weather overview